Flag for Peru Weather past 2 weeks in Chiclayo, Lambayeque, Peru

Now
63 °F

Clear.


Feels Like: 63 °F
Forecast: 62 / 73 °F
Wind: 6 mph from South

Location: Chiclayo Airport

Current Time: Sep 2, 2014 at 4:14:12 AM

Latest Report: Sep 2, 2014 at 3:00 AM


Visibility: 10 mi

Pressure: 29.95 "Hg

Humidity: 88%

Dew point: 59 °F

Location of ChiclayoLocation

Historic Weather in Chiclayo — Graph

°F

Chiclayo temperature yesterday

Maximum temperature yesterday: 77 °F (at 3:00 PM)
Minimum temperature yesterday: 63 °F (at 12:00 AM)
Average temperature yesterday: 66 °F

Past Weeks' High & Low Weather Summary

 TemperatureHumidityPressure
High81 °F (Aug 27, 12:00 PM)100% (Aug 30, 4:00 AM)30.04 "Hg (Aug 30, 4:00 AM)
Low59 °F (Aug 21, 7:00 AM)54% (Aug 27, 12:00 PM)29.83 "Hg (Aug 25, 3:00 PM)
Average67 °F80%29.94 "Hg
* Reported Aug 18 3:00 AM — Sep 2 3:00 AM, Chiclayo, Weather by CustomWeather, © 2014

Note: Actual official high and low records may vary slightly from our data, if they occured in-between our weather recording intervals... More about our weather records

Advertising

Chiclayo weather history for previous 24 hours

 ConditionsComfort  
Time TempWeatherWind HumidityBarometerVisibility
3:00 AM
Sep 2
63 °FClear.6 mph88%29.95 "Hg10 mi
2:00 AM63 °FClear.7 mph88%29.95 "Hg10 mi
1:00 AM63 °FClear.6 mph88%29.95 "Hg10 mi
12:00 AM63 °FClear.8 mph88%29.95 "Hg10 mi
11:00 PM
Sep 1
63 °FClear.9 mph88%29.95 "Hg10 mi
10:00 PM63 °FClear.9 mph88%29.95 "Hg10 mi
9:00 PM63 °FClear.9 mph88%29.92 "Hg10 mi
8:00 PM64 °FClear.13 mph83%29.89 "Hg10 mi
7:00 PM66 °FClear.15 mph78%29.86 "Hg10 mi
6:00 PM68 °FSunny.17 mph78%29.86 "Hg10 mi
5:00 PM73 °FSunny.15 mph69%29.83 "Hg10 mi
4:00 PM75 °FSunny.14 mph65%29.86 "Hg10 mi
3:00 PM77 °FPassing clouds.9 mph61%29.86 "HgN/A
2:00 PM75 °FScattered clouds.10 mph61%29.89 "HgN/A
1:00 PM72 °FOvercast.10 mph65%29.92 "HgN/A
12:00 PM70 °FOvercast.12 mph69%29.92 "HgN/A
11:00 AM68 °FOvercast.1 mph73%29.95 "HgN/A
10:00 AM66 °FOvercast.No wind78%29.95 "HgN/A
9:00 AM64 °FOvercast.5 mph83%29.98 "HgN/A
8:00 AM64 °FLow clouds.6 mph83%29.95 "Hg5 mi
7:00 AM63 °FLow clouds.8 mph94%29.95 "Hg5 mi
6:00 AM63 °FLow clouds.7 mph94%29.92 "Hg5 mi
5:00 AM63 °FOvercast.7 mph88%29.92 "HgN/A
4:00 AM63 °FOvercast.7 mph88%29.92 "HgN/A
Weather by CustomWeather, © 2014

See weather overviewHow to use our weather pages